Weather History for KLFK - January, 2014

Change the Weather History Date:

Monday, January 6, 2014

  Actual Average Record
Temperature  
Mean Temperature 28 °F 49 °F  
Max Temperature 33 °F 59 °F 81 °F (1956)
Min Temperature 22 °F 38 °F 18 °F (1947)
Degree Days  
Heating Degree Days 37 17  
Month to date heating degree days 132 102  
Since 1 July heating degree days 1003 880  
Cooling Degree Days 0 0  
Month to date cooling degree days 0 0  
Year to date cooling degree days 0 0  
Moisture  
Dew Point 8 °F    
Average Humidity 45    
Maximum Humidity 63    
Minimum Humidity 26    
Precipitation  
Precipitation 0.00 in 0.13 in 5.63 in (1998)
Month to date precipitation 0.07 0.79  
Year to date precipitation 0.07 0.79  
Snow  
Snow 0.00 in - - ()
Month to date snowfall 0.0  
Since 1 July snowfall T  
Snow Depth 0.00 in    
Sea Level Pressure  
Sea Level Pressure 30.62 in    
Wind  
Wind Speed 7 mph (NNW)    
Max Wind Speed 17 mph    
Max Gust Speed 25 mph    
Visibility 10 miles    
Events      
T = Trace of Precipitation, MM = Missing Value Source: NWS Daily Summary

Daily Weather History Graph

Daily Weather History Graph

Search for Another Location

Airport or City:

Trip Planner

Search our weather history database for the weather conditions in past years. The results will help you decide how hot, cold, wet, or windy it might be!

Date:

Astronomy

Jan. 06, 2014 Rise Set
Actual Time 7:18 AM CST 5:31 PM CST
Civil Twilight 6:52 AM CST 5:58 PM CST
Nautical Twilight 6:22 AM CST 6:28 PM CST
Astronomical Twilight 5:52 AM CST 6:57 PM CST
Moon 10:59 AM CST (1/6) 11:38 PM CST (1/6)
Length of Visible Light 11h 05m
Length of Day
10h 12m
Waxing Crescent, 35% of the Moon is Illuminated
Jan 6
Waxing Crescent
Jan 7
First Quarter
Jan 15
Full
Jan 23
Last Quarter
Jan 30
New

Hourly Weather History & Observations

Time (CST) Temp. Windchill Dew Point Humidity Pressure Visibility Wind Dir Wind Speed Gust Speed Precip Events Conditions
12:53 AM 28.9 °F 18.2 °F 16.0 °F 58% 30.45 in 10.0 mi North 13.8 mph 19.6 mph N/A   Clear
1:53 AM 28.0 °F 19.3 °F 16.0 °F 61% 30.48 in 10.0 mi North 9.2 mph 16.1 mph N/A   Clear
2:53 AM 27.0 °F 20.5 °F 16.0 °F 63% 30.50 in 10.0 mi NNW 5.8 mph - N/A   Clear
3:53 AM 26.1 °F 18.4 °F 15.1 °F 63% 30.52 in 10.0 mi NNW 6.9 mph 17.3 mph N/A   Clear
4:53 AM 24.1 °F 14.4 °F 12.0 °F 60% 30.53 in 10.0 mi North 9.2 mph - N/A   Clear
5:53 AM 23.0 °F 12.4 °F 8.1 °F 53% 30.56 in 10.0 mi North 10.4 mph 17.3 mph N/A   Clear
6:53 AM 21.9 °F 13.4 °F 7.0 °F 53% 30.61 in 10.0 mi North 6.9 mph - N/A   Clear
7:53 AM 21.9 °F 14.5 °F 7.0 °F 53% 30.65 in 10.0 mi North 5.8 mph - N/A   Clear
8:53 AM 24.1 °F 13.7 °F 3.9 °F 42% 30.69 in 10.0 mi North 10.4 mph - N/A   Clear
9:53 AM 27.0 °F 18.0 °F 3.0 °F 36% 30.71 in 10.0 mi North 9.2 mph - N/A   Clear
10:53 AM 30.9 °F 22.8 °F 3.9 °F 32% 30.71 in 10.0 mi North 9.2 mph 19.6 mph N/A   Clear
11:53 AM 30.0 °F 21.1 °F 3.0 °F 32% 30.69 in 10.0 mi North 10.4 mph - N/A   Clear
12:53 PM 32.0 °F 22.1 °F 1.9 °F 28% 30.66 in 10.0 mi North 13.8 mph 23.0 mph N/A   Clear
1:53 PM 33.1 °F 24.9 °F 3.9 °F 29% 30.65 in 10.0 mi NNW 10.4 mph 17.3 mph N/A   Clear
2:53 PM 32.0 °F 23.6 °F 3.0 °F 29% 30.65 in 10.0 mi NNW 10.4 mph 18.4 mph N/A   Clear
3:53 PM 32.0 °F 24.8 °F 3.9 °F 31% 30.64 in 10.0 mi NW 8.1 mph - N/A   Clear
4:53 PM 30.9 °F 25.2 °F 3.9 °F 32% 30.64 in 10.0 mi NW 5.8 mph - N/A   Clear
5:53 PM 28.9 °F 25.2 °F 5.0 °F 36% 30.65 in 10.0 mi WNW 3.5 mph - N/A   Clear
6:53 PM 28.0 °F 24.2 °F 6.1 °F 39% 30.64 in 10.0 mi NW 3.5 mph - N/A   Clear
7:53 PM 27.0 °F - 7.0 °F 43% 30.67 in 10.0 mi Calm Calm - N/A   Clear
8:53 PM 25.0 °F - 10.9 °F 55% 30.68 in 10.0 mi Calm Calm - N/A   Clear
9:53 PM 26.1 °F 21.9 °F 9.0 °F 49% 30.67 in 10.0 mi WSW 3.5 mph - N/A   Clear
10:53 PM 25.0 °F - 12.9 °F 60% 30.66 in 10.0 mi Calm Calm - N/A   Clear
11:53 PM 25.0 °F - 10.9 °F 55% 30.66 in 10.0 mi Calm Calm - N/A   Clear